DLH15G EDDN-EDDH

Flight info

Callsign DLH15G
Flight time 0h 58m
Altitude 34000
Route ERETO1C ERETO DCT LONLI M726 LASTO M852 HLZ Z990 DIRBO T902 RARUP RARUP6A
Aircraft A359/H-SDE2E3GHIJ3J4J5LM1ORWXY/LB1D1

Departure

Time 2026-05-06 16:02
Airport Nuremberg Airport (EDDN)

Arrival

Time 2026-05-06 17:00
Airport Hamburg Helmut Schmidt Airport (EDDH)
Time Latitude Longitude Altitude Speed Heading
2026-05-06 15:38 49.49553 11.08516 1035 ft 0 kts 62°
2026-05-06 15:53 49.49557 11.08527 1035 ft 6 kts 59°
2026-05-06 15:54 49.49575 11.08542 1036 ft 1 kts 359°
2026-05-06 15:54 49.49604 11.08495 1036 ft 8 kts 296°
2026-05-06 15:54 49.49610 11.08401 1036 ft 14 kts 255°
2026-05-06 15:54 49.49558 11.08331 1035 ft 8 kts 221°
2026-05-06 15:55 49.49543 11.08257 1035 ft 8 kts 271°
2026-05-06 15:55 49.49549 11.08159 1035 ft 11 kts 276°
2026-05-06 15:55 49.49559 11.08030 1035 ft 14 kts 277°
2026-05-06 15:55 49.49575 11.07878 1035 ft 15 kts 279°
2026-05-06 15:56 49.49608 11.07785 1035 ft 6 kts 339°
2026-05-06 15:56 49.49655 11.07767 1034 ft 8 kts 336°
2026-05-06 15:56 49.49685 11.07701 1033 ft 9 kts 298°
2026-05-06 15:56 49.49698 11.07601 1035 ft 11 kts 280°
2026-05-06 15:57 49.49713 11.07469 1034 ft 14 kts 279°
2026-05-06 15:57 49.49728 11.07310 1033 ft 15 kts 278°
2026-05-06 15:57 49.49744 11.07131 1031 ft 19 kts 278°
2026-05-06 15:57 49.49760 11.06970 1025 ft 2 kts 279°
2026-05-06 15:58 49.49770 11.06872 1027 ft 15 kts 279°
2026-05-06 15:58 49.49786 11.06709 1027 ft 14 kts 278°
2026-05-06 15:58 49.49802 11.06549 1024 ft 16 kts 278°
2026-05-06 15:58 49.49820 11.06365 1026 ft 17 kts 278°
2026-05-06 15:59 49.49835 11.06209 1026 ft 15 kts 278°
2026-05-06 15:59 49.49850 11.06072 1032 ft 7 kts 282°
2026-05-06 15:59 49.49872 11.06007 1031 ft 7 kts 313°
2026-05-06 15:59 49.49912 11.05970 1035 ft 7 kts 335°
2026-05-06 16:00 49.49917 11.05966 1036 ft 0 kts 336°
2026-05-06 16:00 49.49932 11.05957 1036 ft 12 kts 338°
2026-05-06 16:00 49.50020 11.05968 1036 ft 12 kts 44°
2026-05-06 16:01 49.50036 11.06098 1036 ft 14 kts 97°
2026-05-06 16:01 49.50012 11.06336 1030 ft 47 kts 98°
2026-05-06 16:01 49.49923 11.07230 1031 ft 120 kts 97°
2026-05-06 16:01 49.49760 11.08798 1227 ft 163 kts 97°
2026-05-06 16:02 49.49557 11.10493 2109 ft 161 kts 100°
2026-05-06 16:02 49.49406 11.12347 2555 ft 192 kts 91°
2026-05-06 16:02 49.49582 11.14550 2971 ft 221 kts 75°
2026-05-06 16:02 49.50182 11.16850 3410 ft 244 kts 61°
2026-05-06 16:03 49.51217 11.19047 4001 ft 261 kts 46°
2026-05-06 16:03 49.52513 11.21062 4905 ft 268 kts 44°
2026-05-06 16:03 49.53850 11.23119 5784 ft 275 kts 46°
2026-05-06 16:03 49.55193 11.25247 6426 ft 280 kts 46°
2026-05-06 16:04 49.56533 11.27412 6726 ft 283 kts 47°
2026-05-06 16:04 49.57889 11.29621 6771 ft 284 kts 47°
2026-05-06 16:04 49.59437 11.31552 6977 ft 291 kts 28°
2026-05-06 16:04 49.61389 11.32541 7632 ft 300 kts
2026-05-06 16:05 49.63464 11.33089 8663 ft 306 kts
2026-05-06 16:05 49.65584 11.33618 9691 ft 312 kts
2026-05-06 16:05 49.67745 11.34167 10632 ft 317 kts
2026-05-06 16:05 49.69943 11.34731 11642 ft 322 kts
2026-05-06 16:06 49.72168 11.35309 12652 ft 327 kts
2026-05-06 16:06 49.74433 11.35900 13620 ft 332 kts
2026-05-06 16:06 49.76729 11.36501 14461 ft 337 kts
2026-05-06 16:06 49.79043 11.37107 15320 ft 341 kts
2026-05-06 16:07 49.81402 11.37726 16212 ft 344 kts
2026-05-06 16:07 49.83747 11.38344 17080 ft 348 kts
2026-05-06 16:07 49.86154 11.38978 17990 ft 353 kts
2026-05-06 16:07 49.88592 11.39607 18746 ft 357 kts
2026-05-06 16:08 49.91077 11.39827 19489 ft 359 kts 354°
2026-05-06 16:08 49.93537 11.39103 20244 ft 359 kts 338°
2026-05-06 16:08 49.95773 11.37418 21029 ft 358 kts 323°
2026-05-06 16:08 49.97797 11.35211 21784 ft 361 kts 320°
2026-05-06 16:09 49.99767 11.32778 22540 ft 364 kts 317°
2026-05-06 16:09 50.01724 11.30225 23296 ft 368 kts 317°
2026-05-06 16:09 50.03709 11.27668 23914 ft 373 kts 320°
2026-05-06 16:09 50.05904 11.25425 24429 ft 384 kts 328°
2026-05-06 16:10 50.08394 11.23707 24711 ft 402 kts 339°
2026-05-06 16:10 50.11182 11.22738 24983 ft 419 kts 351°
2026-05-06 16:10 50.14155 11.22444 25253 ft 434 kts 356°
2026-05-06 16:10 50.17212 11.22398 25513 ft 448 kts 358°
2026-05-06 16:11 50.20399 11.22470 25795 ft 462 kts 359°
2026-05-06 16:11 50.23650 11.22575 26183 ft 471 kts 359°
2026-05-06 16:11 50.26946 11.22671 26714 ft 477 kts 359°
2026-05-06 16:11 50.30294 11.22744 27247 ft 482 kts 359°
2026-05-06 16:12 50.33673 11.22791 27819 ft 487 kts 358°
2026-05-06 16:12 50.37033 11.22592 28372 ft 490 kts 353°
2026-05-06 16:12 50.40448 11.22167 28935 ft 494 kts 352°
2026-05-06 16:12 50.43882 11.21679 29706 ft 493 kts 352°
2026-05-06 16:13 50.47286 11.21164 30392 ft 491 kts 351°
2026-05-06 16:13 50.50696 11.20636 31049 ft 490 kts 351°
2026-05-06 16:13 50.54095 11.20108 31570 ft 491 kts 351°
2026-05-06 16:13 50.57485 11.19583 31734 ft 489 kts 351°
2026-05-06 16:14 50.64263 11.18544 31755 ft 489 kts 351°
2026-05-06 16:14 50.71007 11.17515 31747 ft 490 kts 351°
2026-05-06 16:15 50.77805 11.16477 31749 ft 490 kts 352°
2026-05-06 16:15 50.84603 11.15436 31747 ft 490 kts 352°
2026-05-06 16:16 50.91407 11.14397 31747 ft 490 kts 351°
2026-05-06 16:16 50.98153 11.13354 31747 ft 490 kts 352°
2026-05-06 16:17 51.04956 11.12300 31749 ft 490 kts 351°
2026-05-06 16:17 51.11723 11.10969 31749 ft 488 kts 344°
2026-05-06 16:18 51.18081 11.07429 31750 ft 482 kts 333°
2026-05-06 16:18 51.24189 11.03151 31750 ft 482 kts 332°
2026-05-06 16:19 51.30307 10.98712 31755 ft 482 kts 332°
2026-05-06 16:19 51.36127 10.94528 31837 ft 486 kts 334°
2026-05-06 16:20 51.39387 10.92987 31777 ft 490 kts 346°
2026-05-06 16:20 51.42767 10.92312 31757 ft 491 kts 352°
2026-05-06 16:20 51.49592 10.91567 31765 ft 492 kts 354°
2026-05-06 16:21 51.56385 10.90920 31764 ft 491 kts 353°
2026-05-06 16:21 51.63202 10.90172 31767 ft 490 kts 353°
2026-05-06 16:22 51.69993 10.89345 31771 ft 489 kts 352°
2026-05-06 16:22 51.76775 10.88202 31775 ft 488 kts 350°
2026-05-06 16:23 51.83497 10.86970 31778 ft 489 kts 350°
2026-05-06 16:23 51.90248 10.85898 31782 ft 490 kts 352°
2026-05-06 16:24 51.97072 10.84972 31786 ft 489 kts 352°
2026-05-06 16:24 52.03858 10.84047 31789 ft 489 kts 352°
2026-05-06 16:25 52.10652 10.83094 31797 ft 489 kts 351°
2026-05-06 16:25 52.17437 10.82142 31799 ft 489 kts 352°
2026-05-06 16:26 52.24183 10.81210 31802 ft 488 kts 352°
2026-05-06 16:26 52.30951 10.80273 31800 ft 488 kts 352°
2026-05-06 16:27 52.37741 10.79762 31805 ft 490 kts 359°
2026-05-06 16:27 52.44616 10.80311 31807 ft 508 kts
2026-05-06 16:28 52.48187 10.80674 31808 ft 519 kts
2026-05-06 16:28 52.51796 10.81062 31807 ft 520 kts
2026-05-06 16:28 52.59018 10.81854 31812 ft 519 kts
2026-05-06 16:29 52.66206 10.82625 31496 ft 511 kts
2026-05-06 16:29 52.69726 10.82999 31134 ft 501 kts
2026-05-06 16:29 52.73136 10.83360 30630 ft 495 kts
2026-05-06 16:30 52.76549 10.83718 30113 ft 489 kts
2026-05-06 16:30 52.77695 10.83838 29946 ft 487 kts
2026-05-06 16:30 52.83273 10.84168 28921 ft 476 kts 353°
2026-05-06 16:30 52.86552 10.83653 28333 ft 469 kts 351°
2026-05-06 16:31 52.89774 10.83043 27734 ft 465 kts 351°
2026-05-06 16:31 52.92977 10.82413 27150 ft 460 kts 351°
2026-05-06 16:31 52.96142 10.81779 26580 ft 456 kts 351°
2026-05-06 16:31 52.99276 10.81146 26016 ft 451 kts 351°
2026-05-06 16:32 53.02342 10.80523 25468 ft 447 kts 351°
2026-05-06 16:32 53.05421 10.79895 24903 ft 444 kts 351°
2026-05-06 16:32 53.08478 10.79270 24369 ft 440 kts 351°
2026-05-06 16:32 53.11500 10.78651 23829 ft 436 kts 351°
2026-05-06 16:33 53.14500 10.78035 23276 ft 432 kts 351°
2026-05-06 16:33 53.17475 10.77424 22647 ft 428 kts 351°
2026-05-06 16:33 53.20427 10.76816 22031 ft 424 kts 351°
2026-05-06 16:34 53.25265 10.75819 21039 ft 418 kts 351°
2026-05-06 16:34 53.29069 10.75032 20248 ft 413 kts 351°
2026-05-06 16:34 53.31909 10.74445 19675 ft 409 kts 351°
2026-05-06 16:34 53.33803 10.74052 19290 ft 406 kts 351°
2026-05-06 16:35 53.36605 10.73470 18774 ft 403 kts 351°
2026-05-06 16:35 53.39342 10.72901 18225 ft 400 kts 351°
2026-05-06 16:35 53.43016 10.72135 17521 ft 395 kts 351°
2026-05-06 16:35 53.44824 10.71758 17153 ft 393 kts 351°
2026-05-06 16:36 53.47531 10.71191 16566 ft 390 kts 351°
2026-05-06 16:36 53.50217 10.70629 15965 ft 387 kts 351°
2026-05-06 16:36 53.52758 10.70098 15399 ft 384 kts 351°
2026-05-06 16:36 53.55292 10.69566 14828 ft 381 kts 351°
2026-05-06 16:37 53.57914 10.69015 14257 ft 378 kts 351°
2026-05-06 16:37 53.60466 10.68148 13661 ft 373 kts 340°
2026-05-06 16:37 53.62721 10.66113 13003 ft 366 kts 320°
2026-05-06 16:37 53.64380 10.63011 12428 ft 358 kts 300°
2026-05-06 16:38 53.65334 10.59203 11811 ft 351 kts 282°
2026-05-06 16:38 53.65505 10.55146 11196 ft 346 kts 264°
2026-05-06 16:38 53.64915 10.51262 10599 ft 341 kts 246°
2026-05-06 16:38 53.63648 10.47913 9984 ft 339 kts 229°
2026-05-06 16:39 53.61962 10.45158 9328 ft 336 kts 222°
2026-05-06 16:39 53.60262 10.42524 8917 ft 326 kts 226°
2026-05-06 16:39 53.58950 10.39519 8627 ft 314 kts 242°
2026-05-06 16:39 53.58150 10.36183 8376 ft 301 kts 251°
2026-05-06 16:40 53.57520 10.32889 8150 ft 290 kts 252°
2026-05-06 16:40 53.56917 10.29703 7838 ft 283 kts 252°
2026-05-06 16:40 53.56317 10.26561 7451 ft 280 kts 252°
2026-05-06 16:40 53.55719 10.23452 7030 ft 279 kts 252°
2026-05-06 16:41 53.55122 10.20353 6613 ft 278 kts 252°
2026-05-06 16:41 53.54526 10.17276 6190 ft 277 kts 252°
2026-05-06 16:41 53.53929 10.14191 5736 ft 277 kts 252°
2026-05-06 16:41 53.53332 10.11113 5325 ft 277 kts 252°
2026-05-06 16:42 53.52733 10.08040 4915 ft 275 kts 252°
2026-05-06 16:42 53.52145 10.05020 4469 ft 275 kts 252°
2026-05-06 16:42 53.51546 10.01962 4013 ft 275 kts 252°
2026-05-06 16:42 53.50948 9.98903 3575 ft 275 kts 252°
2026-05-06 16:43 53.50346 9.95892 3286 ft 268 kts 251°
2026-05-06 16:43 53.49452 9.93193 3092 ft 259 kts 233°
2026-05-06 16:43 53.48355 9.90925 2996 ft 246 kts 229°
2026-05-06 16:43 53.47283 9.88809 2980 ft 231 kts 229°
2026-05-06 16:44 53.46271 9.86806 2978 ft 216 kts 230°
2026-05-06 16:44 53.45332 9.84940 2983 ft 204 kts 230°
2026-05-06 16:44 53.44426 9.83137 2991 ft 202 kts 230°
2026-05-06 16:44 53.43522 9.81327 2991 ft 202 kts 230°
2026-05-06 16:45 53.42625 9.79532 2989 ft 200 kts 230°
2026-05-06 16:45 53.41765 9.77805 2979 ft 187 kts 230°
2026-05-06 16:45 53.40937 9.76146 2989 ft 185 kts 230°
2026-05-06 16:45 53.40111 9.74491 2994 ft 185 kts 230°
2026-05-06 16:46 53.39286 9.72847 2995 ft 184 kts 230°
2026-05-06 16:46 53.38453 9.71186 3014 ft 195 kts 231°
2026-05-06 16:46 53.37567 9.69412 2995 ft 199 kts 230°
2026-05-06 16:46 53.36672 9.67625 2989 ft 200 kts 231°
2026-05-06 16:47 53.35776 9.65837 2985 ft 201 kts 230°
2026-05-06 16:47 53.34877 9.64052 2985 ft 200 kts 230°
2026-05-06 16:47 53.33979 9.62265 2987 ft 201 kts 230°
2026-05-06 16:47 53.33079 9.60475 2986 ft 200 kts 230°
2026-05-06 16:48 53.32184 9.58683 2981 ft 200 kts 230°
2026-05-06 16:48 53.31285 9.56899 2990 ft 200 kts 230°
2026-05-06 16:48 53.30455 9.55035 2981 ft 200 kts 241°
2026-05-06 16:48 53.30032 9.52852 2980 ft 197 kts 267°
2026-05-06 16:49 53.30204 9.50620 2984 ft 193 kts 293°
2026-05-06 16:49 53.30886 9.48784 2979 ft 184 kts 317°
2026-05-06 16:49 53.31841 9.47350 2994 ft 184 kts 324°
2026-05-06 16:49 53.32860 9.46032 2988 ft 185 kts 329°
2026-05-06 16:50 53.33981 9.45168 2972 ft 173 kts 349°
2026-05-06 16:50 53.35127 9.45106 2955 ft 162 kts 20°
2026-05-06 16:50 53.36119 9.45929 3002 ft 159 kts 32°
2026-05-06 16:50 53.37014 9.47017 2989 ft 159 kts 40°
2026-05-06 16:51 53.37824 9.48291 2989 ft 160 kts 46°
2026-05-06 16:51 53.38572 9.49666 2989 ft 160 kts 49°
2026-05-06 16:51 53.39298 9.51086 2998 ft 160 kts 50°
2026-05-06 16:51 53.40015 9.52506 2987 ft 160 kts 50°
2026-05-06 16:52 53.40707 9.53884 2996 ft 148 kts 50°
2026-05-06 16:52 53.41357 9.55180 3017 ft 145 kts 50°
2026-05-06 16:52 53.42006 9.56477 3015 ft 145 kts 50°
2026-05-06 16:52 53.42655 9.57776 3021 ft 146 kts 50°
2026-05-06 16:53 53.43300 9.59067 3018 ft 146 kts 50°
2026-05-06 16:53 53.43950 9.60372 3016 ft 146 kts 50°
2026-05-06 16:53 53.44603 9.61682 3017 ft 146 kts 50°
2026-05-06 16:53 53.45251 9.62984 3020 ft 146 kts 50°
2026-05-06 16:54 53.45902 9.64293 3023 ft 146 kts 50°
2026-05-06 16:54 53.46555 9.65603 3026 ft 146 kts 50°
2026-05-06 16:54 53.47208 9.66915 3027 ft 146 kts 50°
2026-05-06 16:54 53.47861 9.68225 3023 ft 146 kts 50°
2026-05-06 16:55 53.48514 9.69538 3023 ft 146 kts 50°
2026-05-06 16:55 53.49199 9.70915 3073 ft 169 kts 50°
2026-05-06 16:55 53.50037 9.72598 3075 ft 206 kts 50°
2026-05-06 16:55 53.50960 9.74456 3069 ft 203 kts 50°
2026-05-06 16:56 53.51864 9.76277 3066 ft 200 kts 50°
2026-05-06 16:56 53.52734 9.78031 2952 ft 193 kts 50°
2026-05-06 16:56 53.53596 9.79767 2689 ft 194 kts 50°
2026-05-06 16:56 53.54451 9.81491 2413 ft 194 kts 50°
2026-05-06 16:57 53.55318 9.83234 2139 ft 193 kts 50°
2026-05-06 16:57 53.56170 9.84955 1874 ft 192 kts 50°
2026-05-06 16:57 53.57019 9.86666 1637 ft 184 kts 51°
2026-05-06 16:57 53.57802 9.88249 1375 ft 169 kts 51°
2026-05-06 16:58 53.58519 9.89697 1128 ft 154 kts 51°
2026-05-06 16:58 53.59167 9.91007 937 ft 139 kts 50°
2026-05-06 16:58 53.59776 9.92239 745 ft 134 kts 50°
2026-05-06 16:58 53.60363 9.93426 579 ft 130 kts 50°
2026-05-06 16:59 53.60953 9.94616 382 ft 134 kts 51°
2026-05-06 16:59 53.61540 9.95810 216 ft 136 kts 51°
2026-05-06 16:59 53.62128 9.97013 52 ft 126 kts 50°
2026-05-06 16:59 53.62608 9.97955 52 ft 64 kts 54°
2026-05-06 17:00 53.62784 9.98315 46 ft 37 kts 50°
2026-05-06 17:00 53.62966 9.98677 49 ft 40 kts 50°
2026-05-06 17:00 53.63131 9.99018 50 ft 36 kts 50°
2026-05-06 17:00 53.63258 9.99285 50 ft 26 kts 60°
2026-05-06 17:01 53.63288 9.99508 50 ft 0 kts 90°
2026-05-06 17:01 53.63288 9.99510 50 ft 1 kts 90°
2026-05-06 17:01 53.63287 9.99514 50 ft 0 kts 92°
2026-05-06 17:01 53.63287 9.99515 50 ft 1 kts 92°
2026-05-06 17:02 53.63273 9.99676 54 ft 0 kts 110°
2026-05-06 17:02 53.63216 9.99767 52 ft 30 kts 149°
2026-05-06 17:02 53.63038 9.99921 50 ft 17 kts 153°
2026-05-06 17:02 53.62988 9.99963 52 ft 0 kts 153°
2026-05-06 17:03 53.62968 9.99980 52 ft 10 kts 153°
2026-05-06 17:03 53.62957 9.99994 52 ft 10 kts 139°
2026-05-06 17:03 53.62933 10.00082 52 ft 0 kts 88°
2026-05-06 17:03 53.62964 10.00186 52 ft 10 kts 79°
2026-05-06 17:04 53.62954 10.00261 52 ft 4 kts 131°
2026-05-06 17:04 53.62954 10.00262 52 ft 0 kts 131°